Private Wetterstation Wechselburg
Wetterdaten: Mittwoch, 06.07.2011
Datum Zeit Temp. +2m Bodentemp. Temp.+5cm Temp. Wind Windchill X Diff Temp. Feuchte +2m Feuchte +5cm Sonnenschein Luftdruck Regen Wind Richtung Richtung Sonnenschein UV Taupunkt Windchill Windben
06.07.2011 00:00 16,1 C 19,1 C 15,0 C 15,6 C 14,7 C 0,0 C 89 % 93 % 0 % 1010,1 hPa 0,0 l/m 0,0 km/h (0 Bft) O-SO 112 0 min 0,0 UV-I 14,3 C 14,7 C 0,0 km/h (0 Bft)
06.07.2011 00:09 16,0 C 19,1 C 15,1 C 15,6 C 14,8 C 0,0 C 90 % 93 % 0 % 1009,9 hPa 0,0 l/m 0,0 km/h (0 Bft) N 0 0 min 0,0 UV-I 14,4 C 14,8 C 0,0 km/h (0 Bft)
06.07.2011 00:15 16,1 C 19,1 C 15,1 C 15,7 C 14,8 C 0,0 C 90 % 93 % 0 % 1009,9 hPa 0,0 l/m 0,0 km/h (0 Bft) W-SW 247 0 min 0,0 UV-I 14,5 C 14,8 C 0,0 km/h (0 Bft)
06.07.2011 00:20 16,0 C 19,0 C 15,0 C 15,5 C 14,6 C 0,0 C 89 % 93 % 0 % 1009,9 hPa 0,0 l/m 0,0 km/h (0 Bft) W-SW 247 0 min 0,0 UV-I 14,2 C 14,6 C 0,0 km/h (0 Bft)
06.07.2011 00:25 16,0 C 19,0 C 14,9 C 15,5 C 14,6 C 0,0 C 90 % 93 % 0 % 1009,9 hPa 0,0 l/m 0,0 km/h (0 Bft) W 270 0 min 0,0 UV-I 14,4 C 14,6 C 0,0 km/h (0 Bft)
06.07.2011 00:30 16,1 C 19,0 C 14,9 C 15,6 C 14,6 C 0,0 C 90 % 93 % 0 % 1009,2 hPa 0,0 l/m 0,0 km/h (0 Bft) SW 225 0 min 0,0 UV-I 14,5 C 14,6 C 0,0 km/h (0 Bft)
06.07.2011 00:35 16,1 C 19,0 C 14,8 C 15,6 C 14,6 C 0,0 C 90 % 93 % 0 % 1009,2 hPa 0,0 l/m 0,0 km/h (0 Bft) SW 225 0 min 0,0 UV-I 14,5 C 14,6 C 0,0 km/h (0 Bft)
06.07.2011 00:40 16,0 C 19,0 C 14,8 C 15,5 C 14,5 C 0,0 C 89 % 93 % 0 % 1009,2 hPa 0,0 l/m 0,0 km/h (0 Bft) SW 225 0 min 0,0 UV-I 14,2 C 14,5 C 0,0 km/h (0 Bft)
06.07.2011 00:45 15,8 C 19,0 C 14,8 C 15,3 C 14,3 C 0,0 C 89 % 94 % 0 % 1009,2 hPa 0,0 l/m 0,0 km/h (0 Bft) SW 225 0 min 0,0 UV-I 14,0 C 14,3 C 0,0 km/h (0 Bft)
06.07.2011 00:50 15,7 C 19,1 C 14,7 C 15,2 C 14,2 C 0,0 C 89 % 93 % 0 % 1009,6 hPa 0,0 l/m 0,0 km/h (0 Bft) NW 315 0 min 0,0 UV-I 13,9 C 14,2 C 0,0 km/h (0 Bft)
06.07.2011 00:55 15,6 C 19,1 C 14,6 C 15,1 C 14,1 C 0,0 C 89 % 93 % 0 % 1009,6 hPa 0,0 l/m 0,0 km/h (0 Bft) N-NW 337 0 min 0,0 UV-I 13,8 C 14,1 C 0,0 km/h (0 Bft)
06.07.2011 01:00 15,6 C 19,1 C 14,5 C 15,1 C 14,1 C 0,0 C 89 % 93 % 0 % 1009,6 hPa 0,0 l/m 0,0 km/h (0 Bft) O-NO 67 0 min 0,0 UV-I 13,8 C 14,1 C 0,0 km/h (0 Bft)
06.07.2011 01:10 15,6 C 19,0 C 14,5 C 15,1 C 14,2 C 0,0 C 90 % 94 % 0 % 1009,6 hPa 0,0 l/m 0,0 km/h (0 Bft) N 0 0 min 0,0 UV-I 14,0 C 14,2 C 0,0 km/h (0 Bft)
06.07.2011 01:15 15,5 C 19,1 C 14,5 C 15,1 C 14,2 C 0,0 C 90 % 93 % 0 % 1009,6 hPa 0,0 l/m 0,0 km/h (0 Bft) O-NO 67 0 min 0,0 UV-I 13,9 C 14,2 C 0,0 km/h (0 Bft)
06.07.2011 01:20 15,4 C 19,1 C 14,5 C 15,0 C 14,2 C 0,0 C 90 % 94 % 0 % 1009,6 hPa 0,0 l/m 0,0 km/h (0 Bft) O-NO 67 0 min 0,0 UV-I 13,8 C 14,2 C 0,0 km/h (0 Bft)
06.07.2011 01:25 15,4 C 19,0 C 14,5 C 15,0 C 14,1 C 0,0 C 90 % 94 % 0 % 1009,6 hPa 0,0 l/m 0,0 km/h (0 Bft) N-NW 337 0 min 0,0 UV-I 13,8 C 14,1 C 0,0 km/h (0 Bft)
06.07.2011 01:30 15,5 C 19,0 C 14,4 C 15,0 C 14,0 C 0,0 C 90 % 94 % 0 % 1009,2 hPa 0,0 l/m 0,0 km/h (0 Bft) N-NW 337 0 min 0,0 UV-I 13,9 C 14,0 C 0,0 km/h (0 Bft)
06.07.2011 01:35 15,3 C 19,0 C 14,4 C 14,8 C 13,9 C 0,0 C 90 % 93 % 0 % 1009,2 hPa 0,0 l/m 0,0 km/h (0 Bft) N-NW 337 0 min 0,0 UV-I 13,7 C 13,9 C 0,0 km/h (0 Bft)
06.07.2011 01:40 15,3 C 19,0 C 14,4 C 14,8 C 13,8 C 0,0 C 90 % 94 % 0 % 1009,2 hPa 0,0 l/m 0,0 km/h (0 Bft) N-NW 337 0 min 0,0 UV-I 13,7 C 13,8 C 0,0 km/h (0 Bft)
06.07.2011 01:45 15,3 C 19,0 C 14,4 C 14,7 C 13,6 C 0,0 C 90 % 94 % 0 % 1009,2 hPa 0,0 l/m 0,0 km/h (0 Bft) N-NW 337 0 min 0,0 UV-I 13,7 C 13,6 C 0,0 km/h (0 Bft)
06.07.2011 01:50 15,3 C 19,0 C 14,3 C 14,7 C 13,6 C 0,0 C 90 % 94 % 0 % 1008,8 hPa 0,0 l/m 0,0 km/h (0 Bft) N-NW 337 0 min 0,0 UV-I 13,7 C 13,6 C 0,0 km/h (0 Bft)
06.07.2011 01:55 15,1 C 19,1 C 14,2 C 14,7 C 13,8 C 0,0 C 90 % 94 % 0 % 1008,8 hPa 0,0 l/m 0,0 km/h (0 Bft) W 270 0 min 0,0 UV-I 13,5 C 13,8 C 0,0 km/h (0 Bft)
06.07.2011 02:00 15,2 C 19,0 C 14,2 C 14,7 C 13,8 C 0,0 C 90 % 94 % 0 % 1008,8 hPa 0,0 l/m 0,0 km/h (0 Bft) W-SW 247 0 min 0,0 UV-I 13,6 C 13,8 C 0,0 km/h (0 Bft)
06.07.2011 02:09 15,1 C 19,1 C 14,1 C 14,6 C 13,5 C 0,0 C 90 % 94 % 0 % 1009,2 hPa 0,0 l/m 0,0 km/h (0 Bft) N 0 0 min 0,0 UV-I 13,5 C 13,5 C 0,0 km/h (0 Bft)
06.07.2011 02:15 15,0 C 19,1 C 14,1 C 14,5 C 13,4 C 0,0 C 90 % 94 % 0 % 1009,2 hPa 0,0 l/m 0,0 km/h (0 Bft) W-SW 247 0 min 0,0 UV-I 13,4 C 13,4 C 0,0 km/h (0 Bft)
06.07.2011 02:20 15,0 C 19,1 C 13,9 C 14,4 C 13,2 C 0,0 C 90 % 94 % 0 % 1009,2 hPa 0,0 l/m 0,0 km/h (0 Bft) W-SW 247 0 min 0,0 UV-I 13,4 C 13,2 C 0,0 km/h (0 Bft)
06.07.2011 02:25 14,9 C 19,1 C 13,9 C 14,3 C 13,1 C 0,0 C 90 % 94 % 0 % 1009,2 hPa 0,0 l/m 0,0 km/h (0 Bft) SW 225 0 min 0,0 UV-I 13,3 C 13,1 C 0,0 km/h (0 Bft)
06.07.2011 02:30 14,9 C 19,1 C 13,9 C 14,2 C 12,9 C 0,0 C 90 % 94 % 0 % 1008,9 hPa 0,0 l/m 0,0 km/h (0 Bft) SW 225 0 min 0,0 UV-I 13,3 C 12,9 C 0,0 km/h (0 Bft)
06.07.2011 02:35 14,9 C 19,1 C 13,7 C 14,3 C 13,0 C 0,0 C 90 % 94 % 0 % 1008,9 hPa 0,0 l/m 0,2 km/h (0 Bft) S-SW 202 0 min 0,0 UV-I 13,3 C 13,0 C 0,0 km/h (0 Bft)
06.07.2011 02:40 14,8 C 19,1 C 13,6 C 14,2 C 13,0 C 0,0 C 89 % 94 % 0 % 1008,9 hPa 0,0 l/m 0,2 km/h (0 Bft) S 180 0 min 0,0 UV-I 13,0 C 13,0 C 0,0 km/h (0 Bft)
06.07.2011 02:45 14,5 C 19,1 C 13,6 C 14,0 C 12,9 C 0,0 C 89 % 94 % 0 % 1008,9 hPa 0,0 l/m 0,0 km/h (0 Bft) S 180 0 min 0,0 UV-I 12,7 C 12,9 C 0,0 km/h (0 Bft)
06.07.2011 02:50 14,5 C 19,1 C 13,5 C 14,0 C 12,9 C 0,0 C 89 % 94 % 0 % 1008,7 hPa 0,0 l/m 0,0 km/h (0 Bft) S 180 0 min 0,0 UV-I 12,7 C 12,9 C 0,0 km/h (0 Bft)
06.07.2011 02:55 14,5 C 19,1 C 13,5 C 13,9 C 12,8 C 0,0 C 89 % 94 % 0 % 1008,7 hPa 0,0 l/m 0,0 km/h (0 Bft) W-SW 247 0 min 0,0 UV-I 12,7 C 12,8 C 0,0 km/h (0 Bft)
06.07.2011 03:00 14,5 C 19,0 C 13,4 C 13,9 C 12,7 C 0,0 C 89 % 94 % 0 % 1008,7 hPa 0,0 l/m 0,0 km/h (0 Bft) S-SO 157 0 min 0,0 UV-I 12,7 C 12,7 C 0,0 km/h (0 Bft)
06.07.2011 03:09 14,3 C 19,0 C 13,4 C 13,7 C 12,6 C 0,0 C 89 % 94 % 0 % 1008,7 hPa 0,0 l/m 0,0 km/h (0 Bft) N 0 0 min 0,0 UV-I 12,5 C 12,6 C 0,0 km/h (0 Bft)
06.07.2011 03:15 14,2 C 19,0 C 13,3 C 13,6 C 12,5 C 0,0 C 90 % 93 % 0 % 1008,7 hPa 0,0 l/m 0,0 km/h (0 Bft) W-SW 247 0 min 0,0 UV-I 12,6 C 12,5 C 0,0 km/h (0 Bft)
06.07.2011 03:20 14,3 C 19,0 C 13,3 C 13,7 C 12,5 C 0,0 C 90 % 93 % 0 % 1008,7 hPa 0,0 l/m 0,0 km/h (0 Bft) W-SW 247 0 min 0,0 UV-I 12,7 C 12,5 C 0,0 km/h (0 Bft)
06.07.2011 03:25 14,3 C 19,0 C 13,3 C 13,7 C 12,4 C 0,0 C 90 % 93 % 0 % 1008,7 hPa 0,0 l/m 0,0 km/h (0 Bft) W-SW 247 0 min 0,0 UV-I 12,7 C 12,4 C 0,0 km/h (0 Bft)
06.07.2011 03:30 14,3 C 19,0 C 13,3 C 13,6 C 12,3 C 0,0 C 90 % 93 % 0 % 1008,2 hPa 0,0 l/m 0,0 km/h (0 Bft) W-SW 247 0 min 0,0 UV-I 12,7 C 12,3 C 0,0 km/h (0 Bft)
06.07.2011 03:35 14,3 C 19,0 C 13,3 C 13,6 C 12,1 C 0,0 C 90 % 93 % 0 % 1008,2 hPa 0,0 l/m 0,0 km/h (0 Bft) W-SW 247 0 min 0,0 UV-I 12,7 C 12,1 C 0,0 km/h (0 Bft)
06.07.2011 03:40 14,1 C 19,0 C 13,2 C 13,4 C 12,0 C 0,0 C 89 % 93 % 0 % 1008,2 hPa 0,0 l/m 0,0 km/h (0 Bft) W-SW 247 0 min 0,0 UV-I 12,3 C 12,0 C 0,0 km/h (0 Bft)
06.07.2011 03:45 14,0 C 19,0 C 13,1 C 13,3 C 11,9 C 0,0 C 89 % 93 % 0 % 1008,2 hPa 0,0 l/m 0,0 km/h (0 Bft) W-SW 247 0 min 0,0 UV-I 12,2 C 11,9 C 0,0 km/h (0 Bft)
06.07.2011 03:50 14,0 C 19,0 C 13,1 C 13,3 C 11,9 C 0,0 C 89 % 93 % 0 % 1008,6 hPa 0,0 l/m 0,0 km/h (0 Bft) W-SW 247 0 min 0,0 UV-I 12,2 C 11,9 C 0,0 km/h (0 Bft)
06.07.2011 03:55 14,0 C 18,9 C 13,0 C 13,3 C 11,8 C 0,0 C 89 % 93 % 0 % 1008,6 hPa 0,0 l/m 0,0 km/h (0 Bft) W-SW 247 0 min 0,0 UV-I 12,2 C 11,8 C 0,0 km/h (0 Bft)
06.07.2011 04:00 14,0 C 18,9 C 13,0 C 13,2 C 11,7 C 0,0 C 90 % 93 % 0 % 1008,6 hPa 0,0 l/m 0,0 km/h (0 Bft) W-SW 247 0 min 0,0 UV-I 12,4 C 11,7 C 0,0 km/h (0 Bft)
06.07.2011 04:09 13,9 C 18,9 C 12,9 C 13,2 C 11,7 C 0,0 C 89 % 93 % 0 % 1008,6 hPa 0,0 l/m 0,0 km/h (0 Bft) N 0 0 min 0,0 UV-I 12,1 C 11,7 C 0,0 km/h (0 Bft)
06.07.2011 04:15 13,9 C 18,9 C 12,7 C 13,1 C 11,5 C 0,0 C 89 % 93 % 0 % 1008,6 hPa 0,0 l/m 0,0 km/h (0 Bft) SW 225 0 min 0,0 UV-I 12,1 C 11,5 C 0,0 km/h (0 Bft)
06.07.2011 04:20 13,8 C 18,9 C 12,7 C 13,0 C 11,5 C 0,0 C 89 % 93 % 0 % 1008,6 hPa 0,0 l/m 0,0 km/h (0 Bft) W-SW 247 0 min 0,0 UV-I 12,0 C 11,5 C 0,0 km/h (0 Bft)
06.07.2011 04:25 13,8 C 18,9 C 12,7 C 13,0 C 11,4 C 0,0 C 89 % 93 % 0 % 1008,6 hPa 0,0 l/m 0,0 km/h (0 Bft) W-SW 247 0 min 0,0 UV-I 12,0 C 11,4 C 0,0 km/h (0 Bft)
06.07.2011 04:30 13,7 C 18,9 C 12,7 C 12,9 C 11,3 C 0,0 C 89 % 93 % 0 % 1008,6 hPa 0,0 l/m 0,0 km/h (0 Bft) W-SW 247 0 min 0,0 UV-I 11,9 C 11,3 C 0,0 km/h (0 Bft)
06.07.2011 04:35 13,7 C 18,9 C 12,5 C 12,9 C 11,3 C 0,0 C 89 % 93 % 0 % 1008,6 hPa 0,0 l/m 0,0 km/h (0 Bft) S 180 0 min 0,0 UV-I 11,9 C 11,3 C 0,0 km/h (0 Bft)
06.07.2011 04:40 13,4 C 18,9 C 12,4 C 12,7 C 11,3 C 0,0 C 88 % 93 % 0 % 1008,6 hPa 0,0 l/m 0,0 km/h (0 Bft) O-NO 67 0 min 0,0 UV-I 11,5 C 11,3 C 0,0 km/h (0 Bft)
06.07.2011 04:45 13,2 C 18,9 C 12,3 C 12,6 C 11,3 C 0,0 C 89 % 93 % 0 % 1008,6 hPa 0,0 l/m 0,0 km/h (0 Bft) O 90 0 min 0,0 UV-I 11,4 C 11,3 C 0,0 km/h (0 Bft)
06.07.2011 04:50 13,3 C 18,8 C 12,3 C 12,6 C 11,2 C 0,0 C 89 % 93 % 0 % 1008,4 hPa 0,0 l/m 0,0 km/h (0 Bft) SW 225 0 min 0,0 UV-I 11,5 C 11,2 C 0,0 km/h (0 Bft)
06.07.2011 04:55 13,4 C 18,8 C 12,2 C 12,6 C 11,1 C 0,0 C 89 % 93 % 0 % 1008,4 hPa 0,0 l/m 0,0 km/h (0 Bft) SW 225 0 min 0,0 UV-I 11,6 C 11,1 C 0,0 km/h (0 Bft)
06.07.2011 05:00 13,4 C 18,8 C 12,3 C 12,6 C 11,1 C 0,0 C 89 % 94 % 0 % 1008,4 hPa 0,0 l/m 0,0 km/h (0 Bft) SW 225 0 min 0,0 UV-I 11,6 C 11,1 C 0,0 km/h (0 Bft)
06.07.2011 05:10 13,3 C 18,8 C 12,1 C 12,5 C 11,0 C 0,0 C 90 % 94 % 0 % 1008,4 hPa 0,0 l/m 0,0 km/h (0 Bft) N 0 0 min 0,0 UV-I 11,7 C 11,0 C 0,0 km/h (0 Bft)
06.07.2011 05:15 13,0 C 18,8 C 12,0 C 12,3 C 11,0 C 0,0 C 88 % 94 % 0 % 1008,4 hPa 0,0 l/m 0,0 km/h (0 Bft) SW 225 0 min 0,0 UV-I 11,1 C 11,0 C 0,0 km/h (0 Bft)
06.07.2011 05:20 12,9 C 18,8 C 11,9 C 12,2 C 10,9 C 0,0 C 88 % 93 % 0 % 1008,4 hPa 0,0 l/m 0,0 km/h (0 Bft) O-SO 112 0 min 0,0 UV-I 11,0 C 10,9 C 0,0 km/h (0 Bft)
06.07.2011 05:25 12,8 C 18,8 C 11,9 C 12,2 C 10,9 C 0,0 C 89 % 93 % 0 % 1008,4 hPa 0,0 l/m 0,0 km/h (0 Bft) O-SO 112 0 min 0,0 UV-I 11,0 C 10,9 C 0,0 km/h (0 Bft)
06.07.2011 05:30 12,7 C 18,8 C 11,8 C 12,1 C 10,9 C 0,0 C 89 % 93 % 0 % 1008,1 hPa 0,0 l/m 0,0 km/h (0 Bft) O-SO 112 0 min 0,0 UV-I 10,9 C 10,9 C 0,0 km/h (0 Bft)
06.07.2011 05:35 12,8 C 18,8 C 11,8 C 12,2 C 10,9 C 0,0 C 89 % 94 % 0 % 1008,1 hPa 0,0 l/m 0,0 km/h (0 Bft) O-SO 112 0 min 0,0 UV-I 11,0 C 10,9 C 0,0 km/h (0 Bft)
06.07.2011 05:40 13,1 C 18,7 C 11,9 C 12,4 C 10,9 C 0,0 C 90 % 94 % 0 % 1008,1 hPa 0,0 l/m 0,0 km/h (0 Bft) W-SW 247 0 min 0,0 UV-I 11,5 C 10,9 C 0,0 km/h (0 Bft)
06.07.2011 05:45 13,0 C 18,7 C 11,9 C 12,3 C 10,9 C 0,0 C 89 % 94 % 0 % 1008,1 hPa 0,0 l/m 0,0 km/h (0 Bft) W-SW 247 0 min 0,0 UV-I 11,2 C 10,9 C 0,0 km/h (0 Bft)
06.07.2011 05:50 13,1 C 18,7 C 11,9 C 12,3 C 10,8 C 0,0 C 90 % 94 % 0 % 1008,0 hPa 0,0 l/m 0,0 km/h (0 Bft) W-SW 247 0 min 0,0 UV-I 11,5 C 10,8 C 0,0 km/h (0 Bft)
06.07.2011 05:55 13,1 C 18,7 C 11,9 C 12,4 C 10,9 C 0,0 C 90 % 94 % 0 % 1008,0 hPa 0,0 l/m 0,0 km/h (0 Bft) W-SW 247 0 min 0,0 UV-I 11,5 C 10,9 C 0,0 km/h (0 Bft)
06.07.2011 06:00 13,1 C 18,7 C 11,9 C 12,4 C 10,9 C 0,0 C 89 % 94 % 0 % 1008,0 hPa 0,0 l/m 0,0 km/h (0 Bft) SW 225 0 min 0,0 UV-I 11,3 C 10,9 C 0,0 km/h (0 Bft)
06.07.2011 06:09 12,9 C 18,7 C 11,6 C 12,2 C 10,9 C 0,0 C 88 % 94 % 0 % 1008,0 hPa 0,0 l/m 0,0 km/h (0 Bft) N 0 0 min 0,0 UV-I 11,0 C 10,9 C 0,0 km/h (0 Bft)
06.07.2011 06:15 12,8 C 18,7 C 11,6 C 12,2 C 11,1 C 0,0 C 89 % 94 % 0 % 1008,0 hPa 0,0 l/m 0,0 km/h (0 Bft) O 90 0 min 0,0 UV-I 11,0 C 11,1 C 0,0 km/h (0 Bft)
06.07.2011 06:20 12,9 C 18,7 C 11,7 C 12,3 C 11,2 C 0,0 C 89 % 94 % 0 % 1008,0 hPa 0,0 l/m 0,0 km/h (0 Bft) O 90 0 min 0,0 UV-I 11,1 C 11,2 C 0,0 km/h (0 Bft)
06.07.2011 06:25 13,3 C 18,7 C 11,8 C 12,6 C 11,3 C 0,0 C 89 % 94 % 0 % 1008,0 hPa 0,0 l/m 0,0 km/h (0 Bft) S-SW 202 0 min 0,0 UV-I 11,5 C 11,3 C 0,0 km/h (0 Bft)
06.07.2011 06:30 13,5 C 18,6 C 11,9 C 12,8 C 11,4 C 0,0 C 89 % 94 % 0 % 1007,8 hPa 0,0 l/m 0,0 km/h (0 Bft) S-SW 202 0 min 0,0 UV-I 11,7 C 11,4 C 0,0 km/h (0 Bft)
06.07.2011 06:35 14,3 C 18,6 C 11,9 C 13,4 C 11,6 C 0,0 C 88 % 94 % 0 % 1007,8 hPa 0,0 l/m 0,0 km/h (0 Bft) S-SW 202 0 min 0,0 UV-I 12,3 C 11,6 C 0,0 km/h (0 Bft)
06.07.2011 06:40 14,3 C 18,6 C 11,9 C 13,4 C 11,7 C 0,0 C 88 % 94 % 0 % 1007,8 hPa 0,0 l/m 0,0 km/h (0 Bft) SW 225 0 min 0,0 UV-I 12,3 C 11,7 C 0,0 km/h (0 Bft)
06.07.2011 06:45 14,8 C 18,6 C 12,1 C 13,8 C 11,7 C 0,0 C 86 % 94 % 0 % 1007,8 hPa 0,0 l/m 0,0 km/h (0 Bft) SW 225 0 min 0,0 UV-I 12,5 C 11,7 C 0,0 km/h (0 Bft)
06.07.2011 06:50 14,6 C 18,6 C 12,1 C 13,7 C 11,9 C 0,0 C 86 % 94 % 0 % 1008,0 hPa 0,0 l/m 0,0 km/h (0 Bft) W-SW 247 0 min 0,0 UV-I 12,3 C 11,9 C 0,0 km/h (0 Bft)
06.07.2011 06:55 15,6 C 18,5 C 12,2 C 14,5 C 12,3 C 0,0 C 85 % 94 % 0 % 1008,0 hPa 0,0 l/m 0,0 km/h (0 Bft) W-SW 247 0 min 0,0 UV-I 13,1 C 12,3 C 0,0 km/h (0 Bft)
06.07.2011 07:00 15,3 C 18,4 C 12,5 C 14,8 C 13,7 C 0,0 C 85 % 94 % 0 % 1008,0 hPa 0,0 l/m 0,0 km/h (0 Bft) SW 225 0 min 0,0 UV-I 12,8 C 13,7 C 0,0 km/h (0 Bft)
06.07.2011 07:09 15,0 C 18,5 C 12,9 C 15,6 C 15,6 C 0,6 C 86 % 94 % 16 % 1007,6 hPa 0,0 l/m 0,0 km/h (0 Bft) N 0 0 min 0,1 UV-I 12,7 C 15,6 C 0,0 km/h (0 Bft)
06.07.2011 07:15 15,2 C 18,4 C 13,0 C 16,8 C 16,8 C 1,6 C 87 % 94 % 42 % 1007,6 hPa 0,0 l/m 0,0 km/h (0 Bft) W-SW 247 0 min 0,1 UV-I 13,0 C 16,8 C 0,0 km/h (0 Bft)
06.07.2011 07:20 15,5 C 18,3 C 13,1 C 18,1 C 18,1 C 2,6 C 87 % 94 % 68 % 1007,6 hPa 0,0 l/m 0,0 km/h (0 Bft) W-SW 247 0 min 0,1 UV-I 13,3 C 18,1 C 0,0 km/h (0 Bft)
06.07.2011 07:25 15,5 C 18,3 C 13,1 C 18,6 C 18,6 C 3,1 C 87 % 94 % 82 % 1007,6 hPa 0,0 l/m 0,0 km/h (0 Bft) W-SW 247 0 min 0,1 UV-I 13,3 C 18,6 C 0,0 km/h (0 Bft)
06.07.2011 07:30 15,3 C 18,3 C 13,2 C 18,9 C 18,9 C 3,6 C 87 % 94 % 95 % 1008,0 hPa 0,0 l/m 0,0 km/h (0 Bft) W-SW 247 5 min 0,1 UV-I 13,1 C 18,9 C 0,0 km/h (0 Bft)
06.07.2011 07:35 15,2 C 18,3 C 13,3 C 17,5 C 17,5 C 2,3 C 87 % 94 % 61 % 1008,0 hPa 0,0 l/m 0,0 km/h (0 Bft) W-SW 247 0 min 0,2 UV-I 13,0 C 17,5 C 0,0 km/h (0 Bft)
06.07.2011 07:40 15,3 C 18,2 C 13,3 C 17,4 C 17,4 C 2,1 C 87 % 94 % 55 % 1008,0 hPa 0,0 l/m 0,0 km/h (0 Bft) W-SW 247 0 min 0,2 UV-I 13,1 C 17,4 C 0,0 km/h (0 Bft)
06.07.2011 07:45 15,3 C 18,3 C 13,5 C 18,4 C 18,4 C 3,1 C 87 % 94 % 82 % 1008,0 hPa 0,0 l/m 0,0 km/h (0 Bft) W-SW 247 0 min 0,2 UV-I 13,1 C 18,4 C 0,0 km/h (0 Bft)
06.07.2011 07:50 15,5 C 18,2 C 13,6 C 18,4 C 18,4 C 2,9 C 88 % 94 % 76 % 1008,1 hPa 0,0 l/m 0,0 km/h (0 Bft) W 270 0 min 0,2 UV-I 13,5 C 18,4 C 0,0 km/h (0 Bft)
06.07.2011 07:55 16,2 C 18,1 C 13,6 C 20,1 C 20,1 C 3,9 C 86 % 94 % 100 % 1008,1 hPa 0,0 l/m 0,0 km/h (0 Bft) SW 225 5 min 0,3 UV-I 13,9 C 20,1 C 0,0 km/h (0 Bft)
06.07.2011 08:00 16,2 C 18,1 C 13,8 C 21,4 C 21,4 C 5,2 C 87 % 94 % 100 % 1008,1 hPa 0,0 l/m 0,0 km/h (0 Bft) W-SW 247 5 min 0,3 UV-I 14,0 C 21,4 C 0,0 km/h (0 Bft)
06.07.2011 08:09 17,5 C 18,1 C 14,1 C 23,0 C 23,0 C 5,5 C 86 % 94 % 100 % 1007,9 hPa 0,0 l/m 0,0 km/h (0 Bft) N 0 9 min 0,4 UV-I 15,1 C 23,0 C 0,0 km/h (0 Bft)
06.07.2011 08:15 17,6 C 18,1 C 14,3 C 23,9 C 23,9 C 6,3 C 84 % 94 % 100 % 1007,9 hPa 0,0 l/m 0,0 km/h (0 Bft) NW 315 6 min 0,5 UV-I 14,9 C 23,9 C 0,0 km/h (0 Bft)
06.07.2011 08:20 18,1 C 18,1 C 14,4 C 24,7 C 24,7 C 6,6 C 83 % 94 % 100 % 1007,9 hPa 0,0 l/m 0,0 km/h (0 Bft) W 270 5 min 0,5 UV-I 15,2 C 24,7 C 0,0 km/h (0 Bft)
06.07.2011 08:25 18,6 C 18,1 C 14,7 C 25,3 C 25,3 C 6,7 C 82 % 95 % 100 % 1007,9 hPa 0,0 l/m 0,0 km/h (0 Bft) W-SW 247 5 min 0,6 UV-I 15,5 C 25,3 C 0,0 km/h (0 Bft)
06.07.2011 08:30 19,6 C 18,1 C 14,8 C 25,8 C 25,8 C 6,2 C 81 % 95 % 100 % 1007,4 hPa 0,0 l/m 0,0 km/h (0 Bft) SW 225 5 min 0,6 UV-I 16,2 C 25,8 C 0,0 km/h (0 Bft)
06.07.2011 08:35 23,3 C 18,1 C 15,1 C 26,7 C 26,7 C 3,4 C 73 % 95 % 89 % 1007,4 hPa 0,0 l/m 0,0 km/h (0 Bft) W-SW 247 5 min 0,7 UV-I 18,2 C 26,7 C 0,0 km/h (0 Bft)
06.07.2011 08:40 22,8 C 18,1 C 15,2 C 26,9 C 26,9 C 4,1 C 72 % 95 % 100 % 1007,4 hPa 0,0 l/m 0,0 km/h (0 Bft) W 270 5 min 0,7 UV-I 17,5 C 26,9 C 0,0 km/h (0 Bft)
06.07.2011 08:45 22,3 C 18,1 C 15,5 C 27,1 C 27,1 C 4,8 C 71 % 95 % 100 % 1007,4 hPa 0,0 l/m 0,0 km/h (0 Bft) W-SW 247 5 min 0,8 UV-I 16,8 C 27,1 C 0,0 km/h (0 Bft)
06.07.2011 08:50 21,3 C 18,1 C 15,5 C 27,4 C 27,4 C 6,1 C 73 % 94 % 100 % 1007,6 hPa 0,0 l/m 0,0 km/h (0 Bft) SW 225 5 min 0,9 UV-I 16,3 C 27,4 C 0,0 km/h (0 Bft)
06.07.2011 08:55 20,8 C 18,1 C 15,7 C 27,6 C 27,6 C 6,8 C 76 % 95 % 100 % 1007,6 hPa 0,0 l/m 0,0 km/h (0 Bft) W-SW 247 5 min 0,9 UV-I 16,4 C 27,6 C 0,0 km/h (0 Bft)
06.07.2011 09:00 21,1 C 18,1 C 15,9 C 27,7 C 27,7 C 6,6 C 75 % 95 % 100 % 1007,6 hPa 0,0 l/m 0,0 km/h (0 Bft) W 270 5 min 1,0 UV-I 16,5 C 27,7 C 0,0 km/h (0 Bft)
06.07.2011 09:09 20,7 C 18,1 C 16,1 C 28,0 C 28,0 C 7,3 C 74 % 94 % 100 % 1007,6 hPa 0,0 l/m 0,0 km/h (0 Bft) N 0 9 min 1,2 UV-I 15,9 C 28,0 C 0,0 km/h (0 Bft)
06.07.2011 09:15 20,3 C 18,0 C 16,3 C 28,7 C 28,7 C 8,4 C 76 % 94 % 100 % 1007,6 hPa 0,0 l/m 0,0 km/h (0 Bft) O-NO 67 6 min 1,2 UV-I 15,9 C 28,7 C 0,0 km/h (0 Bft)
06.07.2011 09:20 20,3 C 18,0 C 16,5 C 28,3 C 28,3 C 8,0 C 75 % 94 % 100 % 1007,6 hPa 0,0 l/m 0,2 km/h (0 Bft) W 270 5 min 1,1 UV-I 15,7 C 28,3 C 0,0 km/h (0 Bft)
06.07.2011 09:25 20,1 C 18,0 C 16,6 C 27,8 C 27,8 C 7,7 C 76 % 94 % 100 % 1007,6 hPa 0,0 l/m 0,2 km/h (0 Bft) N-NO 22 5 min 1,0 UV-I 15,7 C 27,8 C 2,6 km/h (1 Bft)
06.07.2011 09:30 20,1 C 18,0 C 16,8 C 26,8 C 26,8 C 6,7 C 77 % 94 % 100 % 1007,5 hPa 0,0 l/m 0,8 km/h (0 Bft) O-NO 67 5 min 1,2 UV-I 15,9 C 26,8 C 2,4 km/h (1 Bft)
06.07.2011 09:35 20,1 C 18,0 C 17,2 C 26,8 C 26,8 C 6,7 C 77 % 93 % 100 % 1007,5 hPa 0,0 l/m 1,0 km/h (0 Bft) O 90 5 min 1,4 UV-I 15,9 C 26,8 C 3,1 km/h (1 Bft)
06.07.2011 09:40 20,2 C 18,0 C 17,2 C 27,4 C 27,4 C 7,2 C 76 % 92 % 100 % 1007,5 hPa 0,0 l/m 0,5 km/h (0 Bft) N-NO 22 5 min 1,5 UV-I 15,8 C 27,4 C 0,0 km/h (0 Bft)
06.07.2011 09:45 20,3 C 18,0 C 17,2 C 28,9 C 28,9 C 8,6 C 77 % 92 % 100 % 1007,5 hPa 0,0 l/m 0,2 km/h (0 Bft) NO 45 5 min 1,7 UV-I 16,1 C 28,9 C 2,7 km/h (1 Bft)
06.07.2011 09:50 20,3 C 18,0 C 17,7 C 28,9 C 28,9 C 8,6 C 76 % 92 % 100 % 1007,1 hPa 0,0 l/m 0,3 km/h (0 Bft) NW 315 5 min 1,7 UV-I 15,9 C 28,9 C 0,0 km/h (0 Bft)
06.07.2011 09:55 20,5 C 18,0 C 17,9 C 29,0 C 29,0 C 8,5 C 75 % 90 % 100 % 1007,1 hPa 0,0 l/m 0,6 km/h (0 Bft) N 360 5 min 1,4 UV-I 15,9 C 29,0 C 2,1 km/h (1 Bft)
06.07.2011 10:00 20,6 C 18,0 C 18,4 C 28,7 C 28,7 C 8,1 C 74 % 87 % 100 % 1007,1 hPa 0,0 l/m 1,0 km/h (0 Bft) NO 45 5 min 1,3 UV-I 15,8 C 28,7 C 0,0 km/h (0 Bft)
06.07.2011 10:09 20,9 C 18,1 C 18,9 C 28,6 C 28,6 C 7,7 C 75 % 86 % 100 % 1007,1 hPa 0,0 l/m 1,4 km/h (1 Bft) N 0 9 min 1,1 UV-I 16,3 C 28,6 C 2,0 km/h (1 Bft)
06.07.2011 10:15 20,9 C 18,1 C 18,8 C 28,9 C 28,9 C 8,0 C 75 % 86 % 100 % 1007,1 hPa 0,0 l/m 1,4 km/h (1 Bft) W-NW 292 6 min 1,1 UV-I 16,3 C 28,9 C 0,0 km/h (0 Bft)
06.07.2011 10:20 20,9 C 18,1 C 18,7 C 29,5 C 29,5 C 8,6 C 73 % 85 % 100 % 1007,1 hPa 0,0 l/m 0,5 km/h (0 Bft) N-NO 22 5 min 1,1 UV-I 15,9 C 29,5 C 1,6 km/h (1 Bft)
06.07.2011 10:25 20,9 C 18,0 C 18,9 C 29,9 C 29,9 C 9,0 C 73 % 85 % 100 % 1007,1 hPa 0,0 l/m 0,2 km/h (0 Bft) SO 135 5 min 1,1 UV-I 15,9 C 29,9 C 0,0 km/h (0 Bft)
06.07.2011 10:30 21,1 C 18,0 C 18,9 C 30,1 C 30,1 C 9,0 C 73 % 85 % 100 % 1007,2 hPa 0,0 l/m 0,3 km/h (0 Bft) SO 135 5 min 1,2 UV-I 16,1 C 30,1 C 2,3 km/h (1 Bft)
06.07.2011 10:35 21,1 C 18,1 C 18,9 C 30,4 C 30,4 C 9,3 C 73 % 85 % 100 % 1007,2 hPa 0,0 l/m 0,8 km/h (0 Bft) W 270 5 min 2,1 UV-I 16,1 C 30,4 C 2,0 km/h (1 Bft)
06.07.2011 10:40 21,0 C 18,1 C 19,2 C 30,1 C 30,1 C 9,1 C 73 % 85 % 100 % 1007,2 hPa 0,0 l/m 1,4 km/h (1 Bft) S 180 5 min 2,3 UV-I 16,0 C 30,1 C 3,7 km/h (1 Bft)
06.07.2011 10:45 21,1 C 18,1 C 19,2 C 29,2 C 29,2 C 8,1 C 73 % 84 % 100 % 1007,2 hPa 0,0 l/m 1,0 km/h (0 Bft) S-SO 157 5 min 2,1 UV-I 16,1 C 29,2 C 0,0 km/h (0 Bft)
06.07.2011 10:50 21,4 C 18,1 C 19,2 C 29,4 C 29,4 C 8,0 C 73 % 84 % 100 % 1006,9 hPa 0,0 l/m 0,3 km/h (0 Bft) W-SW 247 5 min 2,4 UV-I 16,4 C 29,4 C 2,3 km/h (1 Bft)
06.07.2011 10:55 21,5 C 18,2 C 19,5 C 29,9 C 29,9 C 8,4 C 73 % 85 % 100 % 1006,9 hPa 0,0 l/m 0,6 km/h (0 Bft) SW 225 5 min 2,6 UV-I 16,4 C 29,9 C 0,0 km/h (0 Bft)
06.07.2011 11:00 21,6 C 18,2 C 19,5 C 29,9 C 29,9 C 8,3 C 72 % 84 % 100 % 1006,9 hPa 0,0 l/m 1,4 km/h (1 Bft) W 270 5 min 2,7 UV-I 16,3 C 29,9 C 2,0 km/h (1 Bft)
06.07.2011 11:08 21,7 C 18,2 C 19,9 C 29,5 C 29,5 C 7,8 C 72 % 81 % 100 % 1006,6 hPa 0,0 l/m 2,1 km/h (1 Bft) N 0 8 min 2,8 UV-I 16,4 C 29,5 C 3,2 km/h (1 Bft)
06.07.2011 11:15 21,9 C 18,2 C 20,0 C 30,2 C 30,2 C 8,3 C 72 % 81 % 100 % 1006,6 hPa 0,0 l/m 1,0 km/h (0 Bft) S-SO 157 7 min 2,9 UV-I 16,6 C 30,2 C 0,0 km/h (0 Bft)
06.07.2011 11:20 21,9 C 18,2 C 20,0 C 30,4 C 30,4 C 8,5 C 72 % 83 % 100 % 1006,6 hPa 0,0 l/m 0,8 km/h (0 Bft) NO 45 5 min 2,9 UV-I 16,6 C 30,4 C 2,6 km/h (1 Bft)
06.07.2011 11:25 22,1 C 18,3 C 20,1 C 30,4 C 30,4 C 8,3 C 72 % 82 % 100 % 1006,6 hPa 0,0 l/m 1,3 km/h (1 Bft) O-NO 67 5 min 3,0 UV-I 16,8 C 30,4 C 3,2 km/h (1 Bft)
06.07.2011 11:30 22,3 C 18,3 C 20,4 C 30,2 C 30,2 C 7,9 C 70 % 78 % 100 % 1006,9 hPa 0,0 l/m 1,8 km/h (1 Bft) SO 135 5 min 2,6 UV-I 16,6 C 30,2 C 0,0 km/h (0 Bft)
06.07.2011 11:35 22,5 C 18,3 C 20,8 C 30,3 C 30,3 C 7,8 C 70 % 79 % 100 % 1006,9 hPa 0,0 l/m 1,3 km/h (1 Bft) NO 45 5 min 1,7 UV-I 16,7 C 30,3 C 2,7 km/h (1 Bft)
06.07.2011 11:40 22,6 C 18,3 C 21,0 C 30,2 C 30,2 C 7,6 C 70 % 78 % 100 % 1006,9 hPa 0,0 l/m 0,3 km/h (0 Bft) O-NO 67 5 min 2,3 UV-I 16,8 C 30,2 C 0,0 km/h (0 Bft)
06.07.2011 11:45 22,7 C 18,3 C 21,1 C 30,7 C 30,7 C 8,0 C 70 % 79 % 100 % 1006,9 hPa 0,0 l/m 0,6 km/h (0 Bft) SW 225 5 min 2,1 UV-I 16,9 C 30,7 C 2,9 km/h (1 Bft)
06.07.2011 11:50 22,8 C 18,4 C 21,1 C 30,7 C 30,7 C 7,9 C 70 % 79 % 100 % 1006,8 hPa 0,0 l/m 1,3 km/h (1 Bft) W-SW 247 5 min 3,1 UV-I 17,0 C 30,7 C 2,0 km/h (1 Bft)
06.07.2011 11:55 22,9 C 18,4 C 21,1 C 30,7 C 30,7 C 7,8 C 71 % 79 % 100 % 1006,8 hPa 0,0 l/m 1,6 km/h (1 Bft) SO 135 5 min 3,2 UV-I 17,4 C 30,7 C 0,0 km/h (0 Bft)
06.07.2011 12:00 22,9 C 18,4 C 21,3 C 30,8 C 30,8 C 7,9 C 70 % 80 % 100 % 1006,8 hPa 0,0 l/m 1,6 km/h (1 Bft) SW 225 5 min 3,3 UV-I 17,1 C 30,8 C 2,3 km/h (1 Bft)
06.07.2011 12:09 23,2 C 18,4 C 21,5 C 31,2 C 31,2 C 8,0 C 70 % 78 % 100 % 1006,4 hPa 0,0 l/m 1,3 km/h (1 Bft) N 0 9 min 3,6 UV-I 17,4 C 31,2 C 2,9 km/h (1 Bft)
06.07.2011 12:15 23,3 C 18,5 C 21,5 C 31,1 C 31,1 C 7,8 C 68 % 78 % 100 % 1006,4 hPa 0,0 l/m 1,4 km/h (1 Bft) SO 135 6 min 3,5 UV-I 17,1 C 31,1 C 1,9 km/h (1 Bft)
06.07.2011 12:20 23,3 C 18,5 C 21,5 C 31,2 C 31,2 C 7,9 C 68 % 78 % 100 % 1006,4 hPa 0,0 l/m 1,8 km/h (1 Bft) SW 225 5 min 3,7 UV-I 17,1 C 31,2 C 2,6 km/h (1 Bft)
06.07.2011 12:25 23,6 C 18,5 C 21,7 C 31,2 C 31,2 C 7,6 C 67 % 76 % 100 % 1006,4 hPa 0,0 l/m 1,3 km/h (1 Bft) W 270 5 min 3,7 UV-I 17,1 C 31,2 C 1,9 km/h (1 Bft)
06.07.2011 12:30 23,6 C 18,5 C 21,9 C 31,2 C 31,2 C 7,6 C 66 % 76 % 100 % 1006,5 hPa 0,0 l/m 1,4 km/h (1 Bft) SW 225 5 min 3,7 UV-I 16,9 C 31,2 C 0,0 km/h (0 Bft)
06.07.2011 12:35 23,7 C 18,6 C 22,0 C 31,3 C 31,3 C 7,6 C 66 % 76 % 100 % 1006,5 hPa 0,0 l/m 1,6 km/h (1 Bft) S 180 5 min 3,8 UV-I 17,0 C 31,3 C 2,1 km/h (1 Bft)
06.07.2011 12:40 23,7 C 18,6 C 22,1 C 31,4 C 31,4 C 7,7 C 66 % 74 % 100 % 1006,5 hPa 0,0 l/m 1,3 km/h (1 Bft) NO 45 5 min 3,7 UV-I 17,0 C 31,4 C 2,3 km/h (1 Bft)
06.07.2011 12:45 24,0 C 18,6 C 22,3 C 31,6 C 31,6 C 7,6 C 67 % 76 % 100 % 1006,5 hPa 0,0 l/m 0,8 km/h (0 Bft) W-SW 247 5 min 3,7 UV-I 17,5 C 31,6 C 2,1 km/h (1 Bft)
06.07.2011 12:50 24,0 C 18,7 C 22,3 C 31,7 C 31,7 C 7,7 C 66 % 75 % 100 % 1006,2 hPa 0,0 l/m 1,0 km/h (0 Bft) N-NO 22 5 min 3,5 UV-I 17,2 C 31,7 C 0,0 km/h (0 Bft)
06.07.2011 12:55 24,1 C 18,7 C 22,7 C 31,0 C 31,0 C 6,9 C 63 % 70 % 100 % 1006,2 hPa 0,0 l/m 1,8 km/h (1 Bft) O 90 5 min 3,5 UV-I 16,6 C 31,0 C 2,1 km/h (1 Bft)
06.07.2011 13:00 24,3 C 18,7 C 22,9 C 30,9 C 30,9 C 6,6 C 64 % 71 % 100 % 1006,2 hPa 0,0 l/m 2,1 km/h (1 Bft) O-NO 67 5 min 3,8 UV-I 17,0 C 30,9 C 3,2 km/h (1 Bft)
06.07.2011 13:09 24,3 C 18,8 C 23,0 C 31,4 C 31,4 C 7,1 C 62 % 69 % 100 % 1005,9 hPa 0,0 l/m 1,3 km/h (1 Bft) N 0 9 min 3,8 UV-I 16,5 C 31,4 C 2,6 km/h (1 Bft)
06.07.2011 13:15 24,4 C 18,9 C 23,0 C 31,8 C 31,8 C 7,4 C 63 % 71 % 100 % 1005,9 hPa 0,0 l/m 1,0 km/h (0 Bft) S 180 6 min 3,8 UV-I 16,9 C 31,8 C 1,8 km/h (1 Bft)
06.07.2011 13:20 24,5 C 18,9 C 23,3 C 32,0 C 32,0 C 7,5 C 63 % 70 % 100 % 1005,9 hPa 0,0 l/m 1,4 km/h (1 Bft) SW 225 5 min 3,8 UV-I 17,0 C 32,0 C 4,2 km/h (1 Bft)
06.07.2011 13:25 24,5 C 18,9 C 23,7 C 31,8 C 31,8 C 7,3 C 63 % 71 % 100 % 1005,9 hPa 0,0 l/m 2,1 km/h (1 Bft) W-NW 292 5 min 3,8 UV-I 17,0 C 31,8 C 3,5 km/h (1 Bft)
06.07.2011 13:30 24,6 C 18,9 C 23,9 C 31,9 C 31,9 C 7,3 C 63 % 70 % 100 % 1005,9 hPa 0,0 l/m 1,9 km/h (1 Bft) O-NO 67 5 min 4,0 UV-I 17,1 C 31,9 C 0,0 km/h (0 Bft)
06.07.2011 13:35 24,8 C 19,0 C 24,1 C 32,4 C 32,4 C 7,6 C 61 % 69 % 100 % 1005,9 hPa 0,0 l/m 2,6 km/h (1 Bft) SW 225 5 min 3,9 UV-I 16,8 C 32,4 C 2,0 km/h (1 Bft)
06.07.2011 13:40 24,8 C 19,0 C 24,3 C 32,3 C 32,3 C 7,5 C 60 % 66 % 100 % 1005,9 hPa 0,0 l/m 2,4 km/h (1 Bft) S-SO 157 5 min 3,9 UV-I 16,5 C 32,3 C 0,0 km/h (0 Bft)
06.07.2011 13:45 24,9 C 19,0 C 24,5 C 32,5 C 32,5 C 7,6 C 60 % 66 % 100 % 1005,9 hPa 0,0 l/m 1,9 km/h (1 Bft) O 90 5 min 3,9 UV-I 16,6 C 32,5 C 1,9 km/h (1 Bft)
06.07.2011 13:50 25,1 C 19,1 C 24,2 C 32,7 C 32,7 C 7,6 C 61 % 68 % 100 % 1005,8 hPa 0,0 l/m 1,1 km/h (1 Bft) W-SW 247 5 min 3,8 UV-I 17,0 C 32,7 C 3,7 km/h (1 Bft)
06.07.2011 13:55 25,3 C 19,1 C 24,8 C 32,7 C 32,7 C 7,4 C 60 % 65 % 100 % 1005,8 hPa 0,0 l/m 2,6 km/h (1 Bft) SW 225 5 min 3,7 UV-I 17,0 C 32,7 C 5,6 km/h (1 Bft)
06.07.2011 14:00 25,3 C 19,1 C 25,1 C 32,6 C 32,6 C 7,3 C 60 % 64 % 100 % 1005,8 hPa 0,0 l/m 3,2 km/h (1 Bft) N 360 5 min 3,6 UV-I 17,0 C 32,6 C 3,5 km/h (1 Bft)
06.07.2011 14:09 25,4 C 19,2 C 25,4 C 32,5 C 32,5 C 7,1 C 60 % 66 % 100 % 1005,8 hPa 0,0 l/m 2,7 km/h (1 Bft) N 0 9 min 3,5 UV-I 17,1 C 32,5 C 3,5 km/h (1 Bft)
06.07.2011 14:15 25,6 C 19,2 C 25,5 C 32,7 C 32,7 C 7,1 C 61 % 66 % 100 % 1005,8 hPa 0,0 l/m 2,9 km/h (1 Bft) S 180 6 min 3,4 UV-I 17,5 C 32,7 C 3,4 km/h (1 Bft)
06.07.2011 14:20 25,8 C 19,2 C 25,3 C 32,9 C 32,9 C 7,1 C 61 % 66 % 100 % 1005,8 hPa 0,0 l/m 2,3 km/h (1 Bft) W-SW 247 5 min 3,4 UV-I 17,7 C 32,9 C 4,3 km/h (1 Bft)
06.07.2011 14:25 25,6 C 19,2 C 25,5 C 32,3 C 32,3 C 6,7 C 61 % 65 % 100 % 1005,8 hPa 0,0 l/m 2,1 km/h (1 Bft) S 180 5 min 2,7 UV-I 17,5 C 32,3 C 2,1 km/h (1 Bft)
06.07.2011 14:30 25,8 C 19,2 C 25,2 C 32,3 C 32,3 C 6,5 C 59 % 64 % 100 % 1005,6 hPa 0,0 l/m 1,8 km/h (1 Bft) NO 45 5 min 2,8 UV-I 17,2 C 32,3 C 3,5 km/h (1 Bft)
06.07.2011 14:35 26,1 C 19,3 C 25,3 C 32,6 C 32,6 C 6,5 C 60 % 68 % 100 % 1005,6 hPa 0,0 l/m 1,4 km/h (1 Bft) S-SO 157 5 min 3,0 UV-I 17,7 C 32,6 C 3,7 km/h (1 Bft)
06.07.2011 14:40 26,3 C 19,3 C 25,7 C 32,8 C 32,8 C 6,5 C 60 % 67 % 100 % 1005,6 hPa 0,0 l/m 1,9 km/h (1 Bft) S 180 5 min 3,0 UV-I 17,9 C 32,8 C 4,5 km/h (1 Bft)
06.07.2011 14:45 26,5 C 19,3 C 26,2 C 33,1 C 33,1 C 6,6 C 58 % 62 % 100 % 1005,6 hPa 0,0 l/m 1,6 km/h (1 Bft) N 360 5 min 3,0 UV-I 17,5 C 33,1 C 0,0 km/h (0 Bft)
06.07.2011 14:50 26,4 C 19,4 C 26,2 C 33,2 C 33,2 C 6,8 C 59 % 62 % 100 % 1005,7 hPa 0,0 l/m 1,3 km/h (1 Bft) O 90 5 min 2,9 UV-I 17,7 C 33,2 C 1,8 km/h (1 Bft)
06.07.2011 14:55 26,5 C 19,4 C 26,4 C 33,0 C 33,0 C 6,5 C 58 % 61 % 100 % 1005,7 hPa 0,0 l/m 1,1 km/h (1 Bft) O-SO 112 5 min 2,8 UV-I 17,5 C 33,0 C 1,8 km/h (1 Bft)
06.07.2011 15:00 26,4 C 19,4 C 26,5 C 33,0 C 33,0 C 6,6 C 57 % 62 % 100 % 1005,7 hPa 0,0 l/m 1,3 km/h (1 Bft) SO 135 5 min 2,8 UV-I 17,2 C 33,0 C 2,9 km/h (1 Bft)
06.07.2011 15:09 26,7 C 19,5 C 27,3 C 33,7 C 33,7 C 7,0 C 57 % 58 % 100 % 1005,4 hPa 0,0 l/m 1,6 km/h (1 Bft) N 0 9 min 2,7 UV-I 17,5 C 33,7 C 0,0 km/h (0 Bft)
06.07.2011 15:15 26,5 C 19,5 C 27,6 C 34,2 C 34,2 C 7,7 C 56 % 59 % 100 % 1005,4 hPa 0,0 l/m 1,1 km/h (1 Bft) W 270 6 min 2,6 UV-I 17,0 C 34,2 C 2,6 km/h (1 Bft)
06.07.2011 15:20 26,6 C 19,6 C 27,5 C 33,7 C 33,7 C 7,1 C 56 % 60 % 100 % 1005,4 hPa 0,0 l/m 1,1 km/h (1 Bft) SO 135 5 min 2,2 UV-I 17,1 C 33,7 C 0,0 km/h (0 Bft)
06.07.2011 15:25 26,8 C 19,6 C 27,2 C 33,7 C 33,7 C 6,9 C 56 % 58 % 100 % 1005,4 hPa 0,0 l/m 1,0 km/h (0 Bft) N 360 5 min 2,3 UV-I 17,3 C 33,7 C 0,0 km/h (0 Bft)
06.07.2011 15:30 27,1 C 19,6 C 27,3 C 34,1 C 34,1 C 7,0 C 56 % 57 % 100 % 1005,5 hPa 0,0 l/m 0,6 km/h (0 Bft) S-SO 157 5 min 2,5 UV-I 17,5 C 34,1 C 1,9 km/h (1 Bft)
06.07.2011 15:35 27,2 C 19,7 C 27,5 C 34,2 C 34,2 C 7,0 C 56 % 60 % 100 % 1005,5 hPa 0,0 l/m 1,8 km/h (1 Bft) W-NW 292 5 min 2,2 UV-I 17,6 C 34,2 C 3,1 km/h (1 Bft)
06.07.2011 15:40 27,1 C 19,7 C 28,0 C 33,9 C 33,9 C 6,8 C 55 % 58 % 100 % 1005,5 hPa 0,0 l/m 3,5 km/h (1 Bft) W-SW 247 5 min 1,7 UV-I 17,3 C 33,9 C 3,0 km/h (1 Bft)
06.07.2011 15:45 27,2 C 19,8 C 28,2 C 33,4 C 33,4 C 6,2 C 55 % 54 % 100 % 1005,5 hPa 0,0 l/m 4,2 km/h (1 Bft) S-SO 157 5 min 1,5 UV-I 17,4 C 33,4 C 3,0 km/h (1 Bft)
06.07.2011 15:50 27,3 C 19,8 C 28,1 C 33,4 C 33,4 C 6,1 C 53 % 55 % 100 % 1005,5 hPa 0,0 l/m 2,4 km/h (1 Bft) N-NW 337 5 min 1,4 UV-I 16,9 C 33,4 C 2,7 km/h (1 Bft)
06.07.2011 15:55 27,2 C 19,9 C 27,8 C 33,8 C 33,8 C 6,6 C 53 % 58 % 100 % 1005,5 hPa 0,0 l/m 1,3 km/h (1 Bft) W 270 5 min 1,4 UV-I 16,8 C 33,8 C 3,0 km/h (1 Bft)
06.07.2011 16:00 27,1 C 19,9 C 28,0 C 33,3 C 33,3 C 6,2 C 53 % 57 % 100 % 1005,5 hPa 0,0 l/m 2,3 km/h (1 Bft) W-SW 247 5 min 1,3 UV-I 16,7 C 33,3 C 0,0 km/h (0 Bft)
06.07.2011 16:09 27,5 C 20,0 C 28,1 C 33,7 C 33,7 C 6,2 C 54 % 58 % 100 % 1005,4 hPa 0,0 l/m 0,6 km/h (0 Bft) N 0 9 min 1,9 UV-I 17,3 C 33,7 C 0,0 km/h (0 Bft)
06.07.2011 16:15 27,5 C 20,1 C 28,3 C 34,4 C 34,4 C 6,9 C 52 % 56 % 100 % 1005,4 hPa 0,0 l/m 1,1 km/h (1 Bft) S-SO 157 6 min 1,7 UV-I 16,7 C 34,4 C 0,0 km/h (0 Bft)
06.07.2011 16:20 27,1 C 20,1 C 28,0 C 34,1 C 34,1 C 7,0 C 53 % 53 % 100 % 1005,4 hPa 0,0 l/m 2,1 km/h (1 Bft) W 270 5 min 1,3 UV-I 16,7 C 34,1 C 3,0 km/h (1 Bft)
06.07.2011 16:25 26,4 C 20,2 C 26,6 C 30,9 C 30,9 C 4,5 C 50 % 49 % 100 % 1005,4 hPa 0,0 l/m 5,5 km/h (1 Bft) S 180 5 min 0,5 UV-I 15,1 C 30,9 C 3,0 km/h (1 Bft)
06.07.2011 16:30 26,4 C 20,2 C 26,5 C 29,7 C 29,7 C 3,3 C 49 % 51 % 87 % 1005,6 hPa 0,0 l/m 6,6 km/h (2 Bft) O 90 5 min 0,9 UV-I 14,8 C 29,7 C 3,0 km/h (1 Bft)
06.07.2011 16:35 26,7 C 20,3 C 26,5 C 30,6 C 30,6 C 3,9 C 47 % 47 % 100 % 1005,6 hPa 0,0 l/m 5,1 km/h (1 Bft) N-NO 22 5 min 1,6 UV-I 14,4 C 30,6 C 3,0 km/h (1 Bft)
06.07.2011 16:40 26,7 C 20,3 C 26,5 C 30,9 C 30,9 C 4,2 C 48 % 51 % 100 % 1005,6 hPa 0,0 l/m 4,2 km/h (1 Bft) SO 135 5 min 1,6 UV-I 14,8 C 30,9 C 0,0 km/h (0 Bft)
06.07.2011 16:45 26,8 C 20,4 C 26,2 C 31,4 C 31,4 C 4,6 C 48 % 50 % 100 % 1005,6 hPa 0,0 l/m 4,0 km/h (1 Bft) N-NW 337 5 min 1,7 UV-I 14,9 C 31,4 C 3,0 km/h (1 Bft)
06.07.2011 16:50 26,6 C 20,4 C 25,8 C 31,4 C 31,4 C 4,8 C 49 % 52 % 100 % 1005,4 hPa 0,0 l/m 3,5 km/h (1 Bft) O-NO 67 5 min 1,5 UV-I 15,0 C 31,4 C 3,0 km/h (1 Bft)
06.07.2011 16:55 26,3 C 20,4 C 25,5 C 31,1 C 31,1 C 4,8 C 52 % 54 % 100 % 1005,4 hPa 0,0 l/m 2,6 km/h (1 Bft) NO 45 5 min 1,4 UV-I 15,6 C 31,1 C 1,6 km/h (1 Bft)
06.07.2011 17:00 26,3 C 20,5 C 25,1 C 31,4 C 31,4 C 5,1 C 51 % 55 % 100 % 1005,4 hPa 0,0 l/m 1,8 km/h (1 Bft) O-NO 67 5 min 1,3 UV-I 15,3 C 31,4 C 2,7 km/h (1 Bft)
06.07.2011 17:09 26,4 C 20,5 C 25,1 C 32,2 C 32,2 C 5,8 C 50 % 55 % 100 % 1005,3 hPa 0,0 l/m 0,8 km/h (0 Bft) N 0 9 min 1,2 UV-I 15,1 C 32,2 C 0,0 km/h (0 Bft)
06.07.2011 17:15 26,5 C 20,5 C 25,0 C 32,3 C 32,3 C 5,8 C 48 % 51 % 100 % 1005,3 hPa 0,0 l/m 0,8 km/h (0 Bft) O 90 6 min 1,1 UV-I 14,6 C 32,3 C 2,1 km/h (1 Bft)
06.07.2011 17:20 26,6 C 20,5 C 25,2 C 32,2 C 32,2 C 5,6 C 48 % 53 % 100 % 1005,3 hPa 0,0 l/m 1,3 km/h (1 Bft) O 90 5 min 1,1 UV-I 14,7 C 32,2 C 2,4 km/h (1 Bft)
06.07.2011 17:25 26,6 C 20,6 C 25,2 C 31,9 C 31,9 C 5,3 C 48 % 52 % 100 % 1005,3 hPa 0,0 l/m 2,3 km/h (1 Bft) O-NO 67 5 min 1,0 UV-I 14,7 C 31,9 C 4,2 km/h (1 Bft)
06.07.2011 17:30 26,5 C 20,6 C 25,2 C 31,6 C 31,6 C 5,1 C 46 % 51 % 100 % 1005,3 hPa 0,0 l/m 2,7 km/h (1 Bft) O 90 5 min 0,9 UV-I 13,9 C 31,6 C 2,9 km/h (1 Bft)
06.07.2011 17:35 26,5 C 20,7 C 25,2 C 31,0 C 31,0 C 4,5 C 47 % 51 % 100 % 1005,3 hPa 0,0 l/m 3,2 km/h (1 Bft) O-NO 67 5 min 0,8 UV-I 14,3 C 31,0 C 3,4 km/h (1 Bft)
06.07.2011 17:40 26,6 C 20,8 C 25,2 C 30,9 C 30,9 C 4,3 C 46 % 51 % 100 % 1005,3 hPa 0,0 l/m 2,7 km/h (1 Bft) O 90 5 min 0,8 UV-I 14,0 C 30,9 C 3,4 km/h (1 Bft)
06.07.2011 17:45 26,3 C 20,8 C 24,9 C 30,6 C 30,6 C 4,3 C 47 % 53 % 100 % 1005,3 hPa 0,0 l/m 1,8 km/h (1 Bft) O-SO 112 5 min 0,7 UV-I 14,1 C 30,6 C 0,0 km/h (0 Bft)
06.07.2011 17:50 25,9 C 20,8 C 24,4 C 29,3 C 29,3 C 3,4 C 50 % 57 % 89 % 1005,2 hPa 0,0 l/m 1,1 km/h (1 Bft) NO 45 5 min 0,4 UV-I 14,7 C 29,3 C 0,0 km/h (0 Bft)
06.07.2011 17:55 25,3 C 20,8 C 23,8 C 27,4 C 27,4 C 2,1 C 53 % 61 % 55 % 1005,2 hPa 0,0 l/m 0,2 km/h (0 Bft) O-NO 67 0 min 0,3 UV-I 15,0 C 27,4 C 0,0 km/h (0 Bft)
06.07.2011 18:00 25,0 C 20,8 C 23,5 C 26,4 C 26,4 C 1,4 C 56 % 64 % 37 % 1005,2 hPa 0,0 l/m 0,0 km/h (0 Bft) O-NO 67 0 min 0,2 UV-I 15,6 C 26,4 C 0,0 km/h (0 Bft)
06.07.2011 18:09 24,7 C 20,9 C 23,1 C 24,9 C 24,9 C 0,2 C 61 % 69 % 5 % 1005,6 hPa 0,0 l/m 1,1 km/h (1 Bft) N 0 0 min 0,0 UV-I 16,7 C 24,9 C 4,0 km/h (1 Bft)
06.07.2011 18:11 24,7 C 20,9 C 23,1 C 24,9 C 24,9 C 0,2 C 61 % 69 % 5 % 1005,6 hPa 0,0 l/m 1,1 km/h (1 Bft) N 0 0 min 0,0 UV-I 16,7 C 24,9 C 4,0 km/h (1 Bft)
06.07.2011 18:15 24,5 C 20,8 C 23,1 C 24,4 C 24,3 C 0,0 C 56 % 61 % 0 % 1005,6 hPa 0,0 l/m 7,9 km/h (2 Bft) W 270 0 min 0,0 UV-I 15,1 C 24,3 C 4,0 km/h (1 Bft)
06.07.2011 18:20 24,0 C 20,8 C 22,7 C 23,9 C 23,7 C 0,0 C 56 % 61 % 0 % 1005,6 hPa 0,0 l/m 11,4 km/h (2 Bft) W-SW 247 0 min 0,0 UV-I 14,7 C 23,7 C 4,0 km/h (1 Bft)
06.07.2011 18:25 23,6 C 20,9 C 22,0 C 23,3 C 22,7 C 0,0 C 61 % 67 % 0 % 1005,6 hPa 0,0 l/m 9,3 km/h (2 Bft) W 270 0 min 0,0 UV-I 15,6 C 22,7 C 4,0 km/h (1 Bft)
06.07.2011 18:30 22,8 C 21,3 C 20,7 C 22,1 C 20,8 C 0,0 C 64 % 76 % 0 % 1006,8 hPa 1,4 l/m 6,3 km/h (2 Bft) O-NO 67 0 min 0,0 UV-I 15,6 C 20,8 C 4,0 km/h (1 Bft)
06.07.2011 18:35 21,8 C 21,4 C 19,1 C 20,9 C 19,0 C 0,0 C 69 % 84 % 0 % 1006,8 hPa 0,7 l/m 2,7 km/h (1 Bft) O-NO 67 0 min 0,0 UV-I 15,9 C 19,0 C 2,0 km/h (1 Bft)
06.07.2011 18:40 21,3 C 21,4 C 18,8 C 20,5 C 18,8 C 0,0 C 72 % 86 % 0 % 1006,8 hPa 0,0 l/m 1,3 km/h (1 Bft) O-NO 67 0 min 0,0 UV-I 16,0 C 18,8 C 0,0 km/h (0 Bft)
06.07.2011 18:45 21,4 C 21,4 C 18,9 C 20,6 C 19,0 C 0,0 C 75 % 89 % 0 % 1006,8 hPa 0,0 l/m 0,6 km/h (0 Bft) SW 225 0 min 0,1 UV-I 16,8 C 19,0 C 0,0 km/h (0 Bft)
06.07.2011 18:50 21,9 C 21,5 C 19,1 C 21,1 C 19,5 C 0,0 C 76 % 90 % 0 % 1006,1 hPa 0,0 l/m 0,6 km/h (0 Bft) S 180 0 min 0,1 UV-I 17,5 C 19,5 C 0,0 km/h (0 Bft)
06.07.2011 18:55 21,9 C 21,5 C 19,2 C 21,4 C 20,5 C 0,0 C 76 % 91 % 0 % 1006,1 hPa 0,0 l/m 0,5 km/h (0 Bft) O 90 0 min 0,2 UV-I 17,5 C 20,5 C 0,0 km/h (0 Bft)
06.07.2011 19:00 21,9 C 21,4 C 19,1 C 21,6 C 21,0 C 0,0 C 77 % 91 % 0 % 1006,1 hPa 0,0 l/m 0,2 km/h (0 Bft) SW 225 0 min 0,2 UV-I 17,7 C 21,0 C 0,0 km/h (0 Bft)
06.07.2011 19:05 21,9 C 21,4 C 18,9 C 21,7 C 21,3 C 0,0 C 76 % 91 % 0 % 1006,1 hPa 0,0 l/m 0,0 km/h (0 Bft) W-NW 292 0 min 0,1 UV-I 17,5 C 21,3 C 0,0 km/h (0 Bft)
06.07.2011 19:10 22,2 C 21,4 C 19,1 C 22,2 C 22,1 C 0,0 C 77 % 91 % 0 % 1005,6 hPa 0,0 l/m 0,0 km/h (0 Bft) SW 225 0 min 0,1 UV-I 18,0 C 22,1 C 0,0 km/h (0 Bft)
06.07.2011 19:15 22,6 C 21,4 C 19,4 C 23,7 C 23,7 C 1,1 C 76 % 92 % 29 % 1005,6 hPa 0,0 l/m 0,0 km/h (0 Bft) SW 225 0 min 0,1 UV-I 18,1 C 23,7 C 0,0 km/h (0 Bft)
06.07.2011 19:20 22,8 C 21,4 C 19,4 C 24,6 C 24,6 C 1,8 C 77 % 92 % 47 % 1005,6 hPa 0,0 l/m 0,0 km/h (0 Bft) W 270 0 min 0,1 UV-I 18,5 C 24,6 C 0,0 km/h (0 Bft)
06.07.2011 19:25 22,8 C 21,5 C 19,5 C 25,4 C 25,4 C 2,6 C 76 % 92 % 68 % 1005,6 hPa 0,0 l/m 0,0 km/h (0 Bft) N-NO 22 0 min 0,1 UV-I 18,3 C 25,4 C 0,0 km/h (0 Bft)
06.07.2011 19:30 22,9 C 21,4 C 19,6 C 25,9 C 25,9 C 3,0 C 77 % 92 % 79 % 1005,8 hPa 0,0 l/m 0,0 km/h (0 Bft) S 180 5 min 0,1 UV-I 18,6 C 25,9 C 0,0 km/h (0 Bft)
06.07.2011 19:35 22,9 C 21,4 C 19,6 C 26,4 C 26,4 C 3,5 C 76 % 92 % 92 % 1005,8 hPa 0,0 l/m 0,0 km/h (0 Bft) N-NO 22 5 min 0,1 UV-I 18,4 C 26,4 C 0,0 km/h (0 Bft)
06.07.2011 19:40 22,9 C 21,4 C 19,7 C 26,3 C 26,3 C 3,4 C 77 % 92 % 89 % 1005,8 hPa 0,0 l/m 0,0 km/h (0 Bft) NO 45 5 min 0,0 UV-I 18,6 C 26,3 C 0,0 km/h (0 Bft)
06.07.2011 19:45 22,9 C 21,4 C 19,8 C 26,5 C 26,5 C 3,6 C 78 % 93 % 95 % 1005,8 hPa 0,0 l/m 0,5 km/h (0 Bft) SW 225 5 min 0,0 UV-I 18,9 C 26,5 C 2,9 km/h (1 Bft)
06.07.2011 19:50 23,1 C 21,4 C 19,9 C 26,0 C 26,0 C 2,9 C 77 % 93 % 76 % 1005,5 hPa 0,0 l/m 0,6 km/h (0 Bft) SW 225 5 min 0,0 UV-I 18,8 C 26,0 C 0,0 km/h (0 Bft)
06.07.2011 19:55 23,0 C 21,5 C 19,9 C 25,7 C 25,7 C 2,7 C 78 % 93 % 71 % 1005,5 hPa 0,0 l/m 0,5 km/h (0 Bft) W-SW 247 5 min 0,0 UV-I 18,9 C 25,7 C 0,0 km/h (0 Bft)
06.07.2011 20:00 23,1 C 21,4 C 19,9 C 25,4 C 25,4 C 2,3 C 77 % 93 % 61 % 1005,5 hPa 0,0 l/m 0,0 km/h (0 Bft) W-SW 247 5 min 0,0 UV-I 18,8 C 25,4 C 0,0 km/h (0 Bft)
06.07.2011 20:05 22,7 C 21,4 C 19,6 C 24,9 C 24,9 C 2,2 C 77 % 92 % 58 % 1005,5 hPa 0,0 l/m 0,0 km/h (0 Bft) NW 315 5 min 0,0 UV-I 18,5 C 24,9 C 0,0 km/h (0 Bft)
06.07.2011 20:10 22,5 C 21,4 C 19,5 C 24,3 C 24,3 C 1,8 C 79 % 92 % 47 % 1005,3 hPa 0,0 l/m 0,0 km/h (0 Bft) W-SW 247 5 min 0,0 UV-I 18,7 C 24,3 C 0,0 km/h (0 Bft)
06.07.2011 20:15 22,3 C 21,4 C 19,3 C 23,1 C 23,1 C 0,8 C 78 % 92 % 21 % 1005,3 hPa 0,0 l/m 0,0 km/h (0 Bft) NO 45 0 min 0,0 UV-I 18,3 C 23,1 C 0,0 km/h (0 Bft)
06.07.2011 20:20 22,1 C 21,4 C 19,2 C 22,3 C 22,3 C 0,2 C 79 % 92 % 5 % 1005,3 hPa 0,0 l/m 0,0 km/h (0 Bft) NW 315 0 min 0,0 UV-I 18,3 C 22,3 C 0,0 km/h (0 Bft)
06.07.2011 20:25 21,8 C 21,4 C 19,3 C 21,6 C 21,3 C 0,0 C 80 % 93 % 0 % 1005,3 hPa 0,0 l/m 0,0 km/h (0 Bft) NW 315 0 min 0,0 UV-I 18,2 C 21,3 C 0,0 km/h (0 Bft)
06.07.2011 20:30 21,9 C 21,4 C 19,2 C 21,6 C 20,9 C 0,0 C 80 % 93 % 0 % 1005,3 hPa 0,0 l/m 0,2 km/h (0 Bft) W-SW 247 0 min 0,0 UV-I 18,3 C 20,9 C 0,0 km/h (0 Bft)
06.07.2011 20:35 21,6 C 21,4 C 19,1 C 21,1 C 20,2 C 0,0 C 81 % 93 % 0 % 1005,3 hPa 0,0 l/m 0,2 km/h (0 Bft) N 360 0 min 0,0 UV-I 18,2 C 20,2 C 0,0 km/h (0 Bft)
06.07.2011 20:40 21,5 C 21,4 C 19,1 C 21,0 C 20,0 C 0,0 C 81 % 93 % 0 % 1005,3 hPa 0,0 l/m 0,0 km/h (0 Bft) N-NW 337 0 min 0,0 UV-I 18,1 C 20,0 C 0,0 km/h (0 Bft)
06.07.2011 20:45 21,5 C 21,4 C 19,1 C 20,9 C 19,7 C 0,0 C 82 % 93 % 0 % 1005,3 hPa 0,0 l/m 0,0 km/h (0 Bft) W-SW 247 0 min 0,0 UV-I 18,3 C 19,7 C 0,0 km/h (0 Bft)
06.07.2011 20:50 21,5 C 21,4 C 19,1 C 20,9 C 19,6 C 0,0 C 82 % 94 % 0 % 1006,0 hPa 0,0 l/m 0,2 km/h (0 Bft) W-SW 247 0 min 0,0 UV-I 18,3 C 19,6 C 2,1 km/h (1 Bft)
06.07.2011 20:55 21,5 C 21,4 C 19,1 C 20,8 C 19,5 C 0,0 C 82 % 94 % 0 % 1006,0 hPa 0,0 l/m 1,4 km/h (1 Bft) W-SW 247 0 min 0,0 UV-I 18,3 C 19,5 C 2,4 km/h (1 Bft)
06.07.2011 21:00 21,4 C 21,4 C 19,1 C 20,7 C 19,3 C 0,0 C 82 % 94 % 0 % 1006,0 hPa 0,0 l/m 1,9 km/h (1 Bft) W 270 0 min 0,0 UV-I 18,2 C 19,3 C 2,3 km/h (1 Bft)
06.07.2011 21:05 21,3 C 21,4 C 18,9 C 20,6 C 19,2 C 0,0 C 82 % 94 % 0 % 1006,0 hPa 0,0 l/m 1,1 km/h (1 Bft) O-SO 112 0 min 0,0 UV-I 18,1 C 19,2 C 0,0 km/h (0 Bft)
06.07.2011 21:10 21,0 C 21,3 C 18,8 C 20,4 C 19,1 C 0,0 C 82 % 93 % 0 % 1006,4 hPa 0,0 l/m 0,6 km/h (0 Bft) W-SW 247 0 min 0,0 UV-I 17,8 C 19,1 C 0,0 km/h (0 Bft)
06.07.2011 21:15 20,8 C 21,3 C 18,7 C 20,1 C 18,8 C 0,0 C 82 % 93 % 0 % 1006,4 hPa 0,0 l/m 1,1 km/h (1 Bft) S 180 0 min 0,0 UV-I 17,6 C 18,8 C 4,5 km/h (1 Bft)
06.07.2011 21:20 20,8 C 21,3 C 18,6 C 20,1 C 18,6 C 0,0 C 82 % 93 % 0 % 1006,4 hPa 0,0 l/m 2,1 km/h (1 Bft) W 270 0 min 0,0 UV-I 17,6 C 18,6 C 2,3 km/h (1 Bft)
06.07.2011 21:25 20,7 C 21,5 C 18,7 C 20,0 C 18,6 C 0,0 C 82 % 93 % 0 % 1006,4 hPa 0,0 l/m 1,8 km/h (1 Bft) O-SO 112 0 min 0,0 UV-I 17,5 C 18,6 C 1,9 km/h (1 Bft)
06.07.2011 21:30 20,7 C 21,4 C 18,6 C 20,0 C 18,6 C 0,0 C 83 % 93 % 0 % 1006,8 hPa 0,0 l/m 0,6 km/h (0 Bft) S 180 0 min 0,0 UV-I 17,7 C 18,6 C 0,0 km/h (0 Bft)
06.07.2011 21:35 20,5 C 21,4 C 18,5 C 19,8 C 18,5 C 0,0 C 82 % 93 % 0 % 1006,8 hPa 0,0 l/m 0,2 km/h (0 Bft) S-SW 202 0 min 0,0 UV-I 17,3 C 18,5 C 0,0 km/h (0 Bft)
06.07.2011 21:40 20,4 C 21,4 C 18,5 C 19,7 C 18,4 C 0,0 C 82 % 93 % 0 % 1006,8 hPa 0,0 l/m 0,0 km/h (0 Bft) NO 45 0 min 0,0 UV-I 17,2 C 18,4 C 0,0 km/h (0 Bft)
06.07.2011 21:45 20,1 C 21,4 C 18,3 C 19,5 C 18,3 C 0,0 C 82 % 93 % 0 % 1006,8 hPa 0,7 l/m 0,2 km/h (0 Bft) SO 135 0 min 0,0 UV-I 16,9 C 18,3 C 1,6 km/h (1 Bft)
06.07.2011 21:50 19,6 C 21,4 C 18,1 C 19,1 C 18,1 C 0,0 C 83 % 93 % 0 % 1006,4 hPa 1,4 l/m 0,2 km/h (0 Bft) NW 315 0 min 0,0 UV-I 16,6 C 18,1 C 0,0 km/h (0 Bft)
06.07.2011 21:55 19,4 C 21,4 C 17,9 C 18,9 C 17,9 C 0,0 C 85 % 93 % 0 % 1006,4 hPa 0,7 l/m 0,6 km/h (0 Bft) W 270 0 min 0,0 UV-I 16,8 C 17,9 C 3,9 km/h (1 Bft)
06.07.2011 22:00 19,4 C 21,4 C 17,9 C 18,8 C 17,7 C 0,0 C 85 % 93 % 0 % 1006,4 hPa 1,4 l/m 0,8 km/h (0 Bft) O 90 0 min 0,0 UV-I 16,8 C 17,7 C 2,1 km/h (1 Bft)
06.07.2011 22:05 19,2 C 21,4 C 17,7 C 18,7 C 17,6 C 0,0 C 86 % 94 % 0 % 1006,4 hPa 0,7 l/m 0,8 km/h (0 Bft) SO 135 0 min 0,0 UV-I 16,8 C 17,6 C 0,0 km/h (0 Bft)
06.07.2011 22:10 19,1 C 21,4 C 17,6 C 18,6 C 17,5 C 0,0 C 87 % 94 % 0 % 1007,1 hPa 0,0 l/m 0,3 km/h (0 Bft) O-NO 67 0 min 0,0 UV-I 16,9 C 17,5 C 0,0 km/h (0 Bft)
06.07.2011 22:15 19,1 C 21,4 C 17,6 C 18,6 C 17,5 C 0,0 C 88 % 94 % 0 % 1007,1 hPa 0,0 l/m 0,2 km/h (0 Bft) S-SW 202 0 min 0,0 UV-I 17,1 C 17,5 C 0,0 km/h (0 Bft)
06.07.2011 22:20 19,0 C 21,4 C 17,5 C 18,5 C 17,5 C 0,0 C 88 % 94 % 0 % 1007,1 hPa 0,0 l/m 0,0 km/h (0 Bft) S 180 0 min 0,0 UV-I 17,0 C 17,5 C 0,0 km/h (0 Bft)
06.07.2011 22:25 18,9 C 21,4 C 17,5 C 18,4 C 17,5 C 0,0 C 89 % 94 % 0 % 1007,1 hPa 0,0 l/m 0,0 km/h (0 Bft) S 180 0 min 0,0 UV-I 17,0 C 17,5 C 0,0 km/h (0 Bft)
06.07.2011 22:30 18,9 C 21,4 C 17,4 C 18,4 C 17,5 C 0,0 C 89 % 94 % 0 % 1006,9 hPa 0,7 l/m 0,0 km/h (0 Bft) O-NO 67 0 min 0,0 UV-I 17,0 C 17,5 C 0,0 km/h (0 Bft)
06.07.2011 22:35 18,6 C 21,3 C 17,5 C 18,2 C 17,4 C 0,0 C 89 % 95 % 0 % 1006,9 hPa 0,0 l/m 0,2 km/h (0 Bft) O 90 0 min 0,0 UV-I 16,7 C 17,4 C 0,0 km/h (0 Bft)
06.07.2011 22:40 18,7 C 21,3 C 17,5 C 18,3 C 17,4 C 0,0 C 89 % 95 % 0 % 1006,9 hPa 0,0 l/m 0,0 km/h (0 Bft) O 90 0 min 0,0 UV-I 16,8 C 17,4 C 0,0 km/h (0 Bft)
06.07.2011 22:45 18,7 C 21,3 C 17,3 C 18,2 C 17,3 C 0,0 C 90 % 95 % 0 % 1006,9 hPa 0,0 l/m 0,0 km/h (0 Bft) N-NO 22 0 min 0,0 UV-I 17,0 C 17,3 C 0,0 km/h (0 Bft)
06.07.2011 22:50 18,7 C 21,3 C 17,2 C 18,2 C 17,2 C 0,0 C 90 % 95 % 0 % 1006,8 hPa 0,0 l/m 0,0 km/h (0 Bft) NO 45 0 min 0,0 UV-I 17,0 C 17,2 C 0,0 km/h (0 Bft)
06.07.2011 22:55 18,5 C 21,3 C 17,2 C 18,0 C 17,1 C 0,0 C 90 % 95 % 0 % 1006,8 hPa 0,0 l/m 0,0 km/h (0 Bft) N-NO 22 0 min 0,0 UV-I 16,8 C 17,1 C 0,0 km/h (0 Bft)
06.07.2011 23:00 18,5 C 21,3 C 17,2 C 18,0 C 17,0 C 0,0 C 90 % 95 % 0 % 1006,8 hPa 0,0 l/m 0,0 km/h (0 Bft) NO 45 0 min 0,0 UV-I 16,8 C 17,0 C 0,0 km/h (0 Bft)
06.07.2011 23:05 18,4 C 21,3 C 17,1 C 17,9 C 16,9 C 0,0 C 90 % 94 % 0 % 1006,8 hPa 0,0 l/m 0,2 km/h (0 Bft) SO 135 0 min 0,0 UV-I 16,7 C 16,9 C 0,0 km/h (0 Bft)
06.07.2011 23:10 18,3 C 21,3 C 17,1 C 17,8 C 16,8 C 0,0 C 90 % 94 % 0 % 1006,8 hPa 0,0 l/m 0,3 km/h (0 Bft) SW 225 0 min 0,0 UV-I 16,6 C 16,8 C 0,0 km/h (0 Bft)
06.07.2011 23:15 18,3 C 21,2 C 17,0 C 17,8 C 16,7 C 0,0 C 91 % 94 % 0 % 1006,8 hPa 0,0 l/m 0,2 km/h (0 Bft) SW 225 0 min 0,0 UV-I 16,8 C 16,7 C 1,9 km/h (1 Bft)
06.07.2011 23:20 18,3 C 21,2 C 17,0 C 17,7 C 16,6 C 0,0 C 91 % 94 % 0 % 1006,8 hPa 0,0 l/m 0,2 km/h (0 Bft) S-SO 157 0 min 0,0 UV-I 16,8 C 16,6 C 0,0 km/h (0 Bft)
06.07.2011 23:25 18,2 C 21,2 C 17,1 C 17,6 C 16,5 C 0,0 C 90 % 94 % 0 % 1006,8 hPa 0,0 l/m 0,2 km/h (0 Bft) S-SO 157 0 min 0,0 UV-I 16,5 C 16,5 C 0,0 km/h (0 Bft)
06.07.2011 23:30 18,3 C 21,2 C 17,1 C 17,7 C 16,5 C 0,0 C 91 % 94 % 0 % 1006,9 hPa 0,0 l/m 0,0 km/h (0 Bft) W-SW 247 0 min 0,0 UV-I 16,8 C 16,5 C 0,0 km/h (0 Bft)
06.07.2011 23:35 18,3 C 21,2 C 17,0 C 17,7 C 16,4 C 0,0 C 91 % 95 % 0 % 1006,9 hPa 0,0 l/m 0,0 km/h (0 Bft) S 180 0 min 0,0 UV-I 16,8 C 16,4 C 0,0 km/h (0 Bft)
06.07.2011 23:40 18,3 C 21,2 C 16,9 C 17,7 C 16,4 C 0,0 C 91 % 94 % 0 % 1006,9 hPa 0,0 l/m 0,0 km/h (0 Bft) S-SO 157 0 min 0,0 UV-I 16,8 C 16,4 C 0,0 km/h (0 Bft)
06.07.2011 23:45 18,1 C 21,2 C 16,8 C 17,5 C 16,4 C 0,0 C 91 % 95 % 0 % 1006,9 hPa 0,0 l/m 0,0 km/h (0 Bft) SW 225 0 min 0,0 UV-I 16,6 C 16,4 C 0,0 km/h (0 Bft)
06.07.2011 23:50 18,1 C 21,2 C 16,8 C 17,5 C 16,4 C 0,0 C 91 % 95 % 0 % 1007,1 hPa 0,0 l/m 0,0 km/h (0 Bft) SW 225 0 min 0,0 UV-I 16,6 C 16,4 C 0,0 km/h (0 Bft)
06.07.2011 23:55 18,1 C 21,2 C 16,7 C 17,5 C 16,3 C 0,0 C 91 % 95 % 0 % 1007,1 hPa 0,0 l/m 0,0 km/h (0 Bft) S 180 0 min 0,0 UV-I 16,6 C 16,3 C 0,0 km/h (0 Bft)
_ Min-Zeit 05:30 09:15 06:09 05:30 05:50 00:00 17:30 16:35 00:00 17:50 - 00:00 - - - 00:00 05:30 05:50 00:00
Minimum _ 12,7 C 18,0 C 11,6 C 12,1 C 10,8 C 0,0 C 46 % 47 % 0 % 1005,2 hPa - 0,0 km/h (0 Bft) - - - 0,0 UV-I 10,9 C 10,8 C 0,0 km/h (0 Bft)
_ Max-Zeit 16:09 18:50 16:15 16:15 16:15 10:35 23:15 08:25 07:55 00:00 18:30 18:20 - - 08:09 13:30 19:55 16:15 13:55
Maximum _ 27,5 C 21,5 C 28,3 C 34,4 C 34,4 C 9,3 C 91 % 95 % 100 % 1010,1 hPa 1,4 l/m 11,4 km/h
W-SW (2 Bft)
- - 9 min 4,0 UV-I 18,9 C 34,4 C 5,6 km/h
SW (1 Bft)
Durchschnitt _ 20,0 C 19,5 C 18,4 C 22,7 C 22,2 C 3,1 C 77 % 84 % 47 % 1007,1 hPa #7,6 l/m 0,8 km/h (0 Bft) O-NO - #10:50 h 1,8 UV-I 15,4 C 22,2 C 0,9 km/h (0 Bft)
2013 www.wetterstation-wechselburg.de